Theta_e
293 293 293 294 294 294 294 294 294 294 295 295 294 294 294 295 296 296 297 297 299 300 300 300 301 301 302 303 304 304 305 306 307 307 309 309 309 309 310 310 310 311 311 311 313 314 315 316 317 318 319 318 319 319 319 319 319 320 321 321 321 322
292 292 292 292 293 293 293 293 294 294 294 294 295 295 295 295 296 296 296 297 297 298 299 299 298 299 300 301 301 303 303 304 304 305 305 306 306 306 306 306 307 308 307 308 309 310 311 312 313 314 315 316 317 318 318 318 318 319 319 320 321 321
291 291 292 292 292 293 293 294 294 294 295 295 295 294 295 295 296 296 296 296 297 297 297 298 299 299 299 298 299 299 300 301 300 301 303 301 303 301 303 303 304 305 305 305 306 306 308 308 309 311 312 312 313 315 316 316 316 317 318 318 319 319
290 290 290 291 291 292 292 293 293 293 293 294 294 294 294 294 295 295 295 296 296 296 296 297 298 298 297 297 297 298 298 298 299 299 298 299 301 299 300 301 301 301 303 303 304 304 305 307 307 308 308 309 310 311 313 314 314 315 315 316 316 317
288 288 288 288 289 290 291 291 291 291 291 291 291 292 292 293 294 294 294 295 295 295 296 297 297 296 296 295 296 296 296 297 297 296 297 297 297 297 298 298 299 300 299 301 301 303 303 305 305 306 306 307 308 309 309 311 311 312 312 313 314 314
286 286 286 286 287 288 289 288 288 288 288 289 289 289 290 291 292 292 293 294 294 295 295 295 295 295 295 295 295 295 295 295 295 295 295 296 296 297 297 296 296 297 297 297 298 299 300 301 302 302 303 305 306 307 308 308 309 310 311 311 312 313
284 285 285 285 285 286 287 287 286 285 286 286 286 287 288 289 290 290 292 293 293 293 292 292 292 292 292 293 294 294 294 294 294 294 294 295 295 296 296 296 294 296 295 298 297 298 298 299 300 301 301 302 302 304 305 306 307 307 308 309 310 307
283 283 283 283 283 284 285 285 284 284 284 284 285 285 286 287 288 289 290 291 291 291 290 290 289 290 290 290 291 292 292 293 293 293 294 293 293 293 294 294 294 294 295 295 296 297 298 298 298 298 299 300 300 301 302 303 304 304 305 306 307 308
282 282 282 282 282 282 283 284 283 282 282 282 283 284 284 285 286 287 288 289 288 288 287 287 287 288 289 289 290 291 291 291 290 290 291 290 289 290 292 293 293 293 293 295 295 295 296 297 296 297 298 299 300 301 301 301 301 302 303 304 305 306
281 281 281 281 281 281 282 282 282 281 281 281 282 282 282 283 284 285 286 286 285 285 285 285 286 287 287 288 289 290 290 290 290 290 290 288 289 289 289 290 292 292 292 293 293 294 295 295 295 295 296 297 298 299 299 299 300 300 301 301 302 303
280 280 280 280 280 280 280 281 280 280 280 280 280 281 281 282 283 283 284 283 283 283 283 284 285 285 286 286 287 287 288 288 289 289 289 289 289 290 288 289 291 290 291 291 291 291 291 293 294 295 294 296 297 298 299 299 299 299 298 299 299 299
280 280 280 279 279 279 279 279 279 278 278 279 279 279 280 282 282 282 282 282 282 282 283 283 284 284 285 285 285 286 286 287 287 288 288 289 289 289 289 288 288 287 289 290 291 290 292 293 295 293 293 294 295 295 296 296 296 296 296 296 296 297
280 280 279 279 278 278 278 279 278 278 278 278 278 279 280 281 281 281 281 281 282 282 282 283 283 284 284 284 285 285 286 286 287 287 287 288 288 288 288 288 289 289 289 289 290 290 291 292 293 291 294 294 295 294 293 294 294 295 293 293 294 295
279 279 278 278 278 278 278 278 278 277 277 278 277 278 280 281 281 280 280 280 281 281 281 282 283 283 283 284 284 285 285 286 286 286 286 287 287 287 288 287 288 288 288 289 289 289 290 290 290 292 293 294 294 293 293 293 293 293 293 292 292 293
279 278 278 278 278 277 277 278 277 276 277 277 277 278 279 280 280 279 279 280 280 280 280 281 281 282 282 283 284 285 285 286 286 286 286 285 286 286 286 287 287 287 288 288 288 288 289 289 290 292 292 293 293 294 293 293 293 292 291 291 291 292
279 279 278 278 277 277 278 278 277 277 277 277 277 277 278 279 278 278 278 279 279 279 279 280 280 280 281 282 283 284 285 285 285 285 286 285 285 285 286 286 286 286 287 287 287 287 288 288 289 291 292 292 292 293 293 292 293 292 291 291 291 291
279 278 278 277 278 278 277 277 277 277 276 276 276 277 277 278 277 277 278 278 278 278 278 278 278 279 280 281 282 283 284 285 285 285 285 284 284 284 284 284 285 285 286 286 286 286 286 287 289 290 290 291 291 291 291 291 291 290 290 290 290 291
278 277 277 278 277 277 277 277 277 276 275 276 275 276 277 277 276 276 277 276 277 277 277 277 277 278 278 280 281 282 283 285 285 284 284 284 284 284 284 284 284 284 284 285 285 285 285 286 288 288 289 289 290 291 289 288 288 288 288 288 289 289
278 277 277 277 276 276 276 276 276 275 274 274 275 275 276 276 275 275 275 275 275 275 276 276 276 277 277 279 280 281 283 284 284 284 284 284 284 284 284 284 284 284 284 284 284 284 284 284 286 287 288 288 289 288 287 287 287 287 287 288 289 289
277 277 276 276 276 276 276 276 275 274 273 273 274 274 274 275 274 274 274 273 274 274 275 275 275 276 277 278 280 281 283 284 284 284 284 283 283 283 283 283 283 283 283 283 283 283 282 283 284 286 286 287 287 287 286 286 286 286 287 288 289 291
277 276 276 275 274 275 275 274 274 273 272 272 272 273 273 273 273 273 272 272 272 273 274 274 275 276 277 278 281 282 283 284 284 284 284 283 283 283 283 282 281 282 282 283 283 283 283 283 284 285 286 286 287 286 286 286 285 285 286 287 288 289
276 275 275 274 274 274 274 273 273 272 271 271 272 272 272 272 272 271 270 271 272 272 273 274 275 276 278 280 281 282 282 284 284 283 283 283 283 282 282 282 282 282 282 283 283 283 284 283 283 284 286 286 287 287 286 286 285 284 284 285 285 285
276 275 274 274 274 274 274 273 272 271 271 271 270 270 271 271 270 269 269 270 270 271 272 273 275 277 278 279 280 281 282 282 283 283 282 282 282 282 281 282 282 282 282 283 283 283 284 284 283 284 285 286 286 287 286 285 285 285 285 285 285 285
274 274 274 274 273 273 273 272 271 270 270 270 269 270 271 269 268 268 268 268 268 269 270 273 275 277 277 278 279 279 279 280 282 282 282 282 281 281 281 281 281 281 282 282 283 283 283 284 284 284 285 285 285 286 286 285 285 286 285 284 284 284
274 273 273 273 273 273 272 271 270 270 269 269 269 270 269 268 268 267 267 267 267 268 270 272 273 275 276 277 277 277 277 279 280 280 281 281 281 280 280 280 281 281 281 281 282 283 283 283 283 284 284 284 285 285 286 286 285 286 285 284 283 283
273 273 273 272 272 272 271 271 269 269 268 268 270 269 268 267 267 267 266 266 267 268 269 271 272 273 274 275 276 276 276 277 278 279 279 280 280 280 279 279 280 280 279 279 280 281 282 283 283 283 283 283 283 284 285 285 285 286 284 284 283 284
272 272 272 271 271 271 270 270 269 267 267 268 270 268 267 267 266 265 265 266 267 267 268 270 271 272 273 273 274 273 274 275 276 276 277 279 279 279 279 278 279 279 278 279 278 279 281 282 282 281 282 282 282 283 283 284 284 284 285 283 284 284
271 270 269 269 269 270 270 270 269 267 268 269 269 268 267 266 265 264 265 265 266 267 268 269 270 271 272 272 272 272 273 273 274 274 275 277 277 278 278 278 278 278 278 278 278 278 279 280 281 281 281 281 281 281 282 282 283 283 284 284 284 284
269 268 267 267 268 270 270 270 269 269 269 269 268 267 265 264 264 264 264 264 265 266 267 268 269 270 270 270 271 271 271 272 272 273 273 275 275 276 276 276 277 277 277 276 276 277 278 278 279 279 279 280 280 280 280 280 281 282 283 284 283 282
267 266 266 266 268 269 269 268 267 268 268 268 266 265 264 263 263 263 263 263 264 266 267 267 269 269 269 269 270 269 269 270 271 271 271 272 274 274 275 275 276 276 275 275 275 275 275 276 276 277 277 277 278 278 278 279 280 280 282 282 281 281
266 266 265 266 267 268 267 266 266 267 267 266 264 263 262 262 262 263 262 263 264 265 266 266 267 268 268 268 269 269 270 269 270 271 272 274 275 276 275 276 275 275 275 275 274 274 273 274 274 276 279 278 279 277 277 277 278 280 281 281 282 281
265 265 264 264 266 267 266 265 265 266 266 265 264 263 261 261 261 261 261 262 263 264 264 265 266 266 267 267 267 268 268 271 273 273 272 272 275 277 278 278 275 275 274 274 275 275 273 273 275 278 278 278 278 278 279 279 280 281 280 280 281 280
264 263 263 263 264 265 265 264 264 264 264 264 263 262 261 261 260 260 260 261 262 263 264 264 264 265 266 266 266 267 267 267 269 272 274 274 275 276 277 277 276 276 276 275 273 274 276 277 277 277 277 277 277 277 278 278 279 279 278 278 276 272
262 262 262 262 263 264 265 264 263 263 263 263 262 262 261 260 260 259 260 261 261 262 263 264 264 265 265 265 266 266 266 266 266 267 271 273 274 275 276 276 275 275 275 275 275 273 272 274 276 276 276 276 276 276 276 277 277 277 276 275 274 270
262 262 262 262 263 264 264 263 262 262 262 262 261 261 260 260 259 259 260 260 261 262 262 263 263 264 264 264 264 265 265 265 265 265 266 269 272 274 274 274 274 273 273 273 274 274 274 274 275 275 275 275 274 275 275 275 275 275 275 272 268 266
262 262 261 262 262 263 262 261 261 261 261 261 261 260 259 259 259 259 260 260 261 261 261 262 262 263 263 264 264 264 265 265 265 265 266 266 267 269 271 272 272 272 272 272 272 272 273 273 274 274 273 273 273 273 273 272 269 272 272 270 265 265
261 261 261 262 262 261 260 260 260 260 260 260 260 259 259 259 259 259 260 261 261 261 260 261 262 262 263 263 263 264 264 264 264 265 265 265 266 266 266 267 267 269 270 268 269 270 271 272 272 272 272 272 272 271 271 268 263 262 263 264 264 265
260 260 260 260 260 259 259 259 260 261 259 259 259 258 258 258 259 259 259 260 260 260 260 261 261 262 262 263 264 264 264 264 264 264 264 265 266 266 265 265 266 265 267 267 267 268 269 270 271 271 270 270 270 269 267 260 261 261 261 262 263 263
Wind_Speed
13 13 13 13 12 11 10 11 11 12 13 12 9 12 12 10 9 9 8 7 7 6 7 6 5 4 4 4 4 4 4 6 5 4 5 5 5 5 5 4 4 4 4 4 5 5 6 5 6 6 6 6 7 7 8 8 8 9 10 9 9 10
12 13 14 15 16 15 15 14 13 15 14 15 16 16 15 14 14 12 12 11 9 11 9 6 4 4 4 4 4 4 3 4 4 5 5 5 5 4 4 5 5 4 4 4 4 5 5 5 5 5 6 6 6 7 7 7 7 9 10 10 9 8
14 15 15 14 14 14 15 16 16 15 15 16 17 17 18 19 18 16 14 13 12 11 11 11 9 8 5 5 4 3 3 3 3 3 3 3 4 3 4 4 4 4 4 4 4 4 4 4 4 4 5 5 6 6 7 7 7 9 9 9 10 9
16 15 15 14 15 15 17 16 16 17 18 16 15 16 15 16 17 16 17 14 13 12 12 12 9 7 6 5 4 4 4 3 3 3 3 3 4 2 3 4 4 4 4 4 4 4 4 4 5 4 4 5 5 6 6 6 7 8 9 8 10 9
14 14 16 17 17 16 17 16 16 16 16 17 15 15 16 15 14 14 14 14 15 15 13 11 11 11 10 9 5 4 4 4 4 4 4 4 3 2 2 3 3 3 3 4 4 4 4 5 5 5 4 5 5 7 6 6 6 7 8 8 9 9
12 14 16 16 17 16 16 15 16 17 15 15 15 16 17 16 14 14 14 14 15 14 14 13 13 14 13 12 11 10 7 5 4 4 4 4 5 6 4 3 3 3 3 3 4 4 4 4 5 5 4 5 5 6 7 6 6 6 7 8 9 8
16 15 14 14 15 15 15 15 15 15 16 16 16 15 15 14 13 14 14 13 15 13 13 14 13 13 14 14 12 13 12 8 6 4 4 6 7 6 7 6 4 5 4 4 4 4 4 4 4 4 5 5 5 6 6 6 6 7 7 8 8 8
13 14 15 14 14 14 15 14 14 14 15 16 14 15 16 15 13 14 13 13 13 13 14 14 13 14 13 13 12 12 12 12 9 7 4 4 4 5 4 6 6 5 6 5 5 5 5 4 4 4 5 5 5 5 5 6 7 7 8 8 8 8
15 14 14 12 13 14 14 14 14 15 15 16 16 15 15 14 13 14 12 12 11 12 13 14 14 12 12 12 12 10 10 11 10 10 8 6 3 3 4 4 4 4 4 6 5 6 6 5 4 3 4 5 5 5 6 6 7 7 7 7 8 8
15 14 13 13 14 13 13 13 12 13 12 14 14 14 14 13 14 14 13 12 11 11 12 12 12 12 12 11 11 11 11 11 11 11 10 7 5 4 3 4 4 4 3 4 4 5 5 5 4 4 4 4 4 5 6 6 7 8 8 7 8 8
13 15 16 15 15 15 14 12 12 12 13 13 14 13 14 13 13 13 13 13 12 12 11 11 10 9 12 12 12 12 12 12 11 11 10 9 9 6 4 3 4 5 5 4 4 4 4 4 5 4 4 4 4 4 6 6 7 8 8 9 8 8
11 11 13 14 16 18 18 15 13 12 12 13 13 14 15 14 14 13 14 13 13 12 12 11 10 10 10 10 12 11 12 11 11 11 11 11 10 8 7 6 4 4 5 7 6 4 4 3 4 5 8 7 6 6 6 6 7 7 7 8 9 9
12 12 13 13 12 13 13 14 15 14 13 11 12 12 12 13 14 14 13 13 13 12 13 12 11 11 11 11 10 10 11 12 11 11 11 11 10 10 10 9 8 6 5 6 7 8 5 3 4 8 10 10 11 8 6 7 7 6 6 7 8 9
14 14 14 14 13 13 12 12 12 12 14 14 13 13 11 11 11 11 12 13 13 12 12 12 12 12 12 11 12 12 12 11 11 11 12 12 13 12 10 10 9 8 7 7 7 7 6 3 5 10 11 12 12 10 8 7 7 7 6 6 7 8
11 12 13 12 12 13 13 12 12 12 11 12 13 13 12 12 10 11 11 11 11 12 12 13 13 13 12 12 11 11 11 11 11 11 12 13 11 11 11 11 10 10 8 8 9 9 6 5 7 10 11 11 12 12 11 7 7 7 8 7 7 8
9 9 9 10 11 10 11 10 11 12 10 10 11 10 11 11 11 10 11 11 11 12 11 11 11 12 12 12 12 11 11 10 10 10 9 10 10 11 12 11 12 10 10 9 9 9 7 6 8 12 13 13 14 13 11 8 8 7 8 8 8 8
10 10 11 11 11 11 12 12 10 11 12 11 12 11 11 10 10 10 11 11 11 11 11 11 10 11 11 12 12 12 11 9 9 10 9 9 9 10 11 11 12 11 10 10 10 10 9 6 12 13 14 15 16 16 12 7 7 7 8 7 7 8
9 9 10 8 9 11 10 11 11 12 13 12 11 12 11 10 10 10 9 10 12 13 13 12 11 11 11 10 11 11 11 10 9 10 9 9 8 7 7 8 8 9 10 10 10 9 8 7 12 14 15 16 16 17 8 7 7 8 8 8 6 6
7 8 6 7 9 10 11 10 10 12 14 13 12 11 11 11 10 10 10 11 12 12 12 12 13 12 11 11 11 11 11 10 10 9 7 9 8 9 8 8 8 8 9 10 9 9 8 7 10 14 15 15 17 12 6 7 7 7 8 8 7 6
5 5 5 7 8 8 8 8 9 11 12 13 13 13 12 11 11 10 10 12 12 12 12 12 12 13 13 12 12 11 11 10 8 9 8 9 11 10 8 8 8 8 7 8 10 9 11 8 10 15 15 15 15 12 8 7 7 8 7 8 8 6
6 6 6 6 8 8 6 8 10 9 11 12 12 12 12 12 10 10 12 14 14 13 12 11 12 12 12 12 11 11 12 10 8 8 8 8 8 9 9 8 9 9 7 6 8 9 9 8 8 13 14 15 14 10 5 6 8 8 7 7 9 7
8 9 9 9 9 7 7 7 8 9 10 11 11 11 12 11 10 12 13 14 13 12 12 12 12 12 11 12 11 11 10 9 7 7 8 7 7 8 8 8 8 10 9 7 7 7 7 7 7 9 16 15 14 14 8 5 7 9 10 8 8 10
9 10 11 9 7 7 8 8 9 9 9 10 11 11 11 9 10 13 13 12 13 13 13 12 12 13 12 12 11 10 10 9 8 7 7 7 7 6 7 8 8 8 8 7 7 7 6 6 7 7 13 15 15 16 12 6 6 7 8 9 9 8
9 11 11 9 7 8 8 8 9 10 9 9 10 11 9 8 10 11 12 13 13 14 13 13 13 11 11 11 10 10 10 9 9 7 7 6 7 8 8 7 7 7 6 5 5 5 6 6 7 6 9 13 16 15 15 8 6 8 8 9 8 8
10 11 12 10 8 7 8 9 11 10 9 10 11 10 8 9 11 12 12 12 13 13 13 13 14 13 11 10 11 11 12 10 9 8 8 8 8 8 8 7 7 7 6 5 4 4 4 5 5 8 6 10 15 15 15 15 10 13 8 8 10 9
8 10 11 10 8 8 7 8 10 9 11 13 11 6 7 9 11 12 12 12 11 12 12 12 13 12 11 11 11 10 11 10 9 8 7 7 8 7 7 6 6 7 6 6 6 5 4 5 5 6 9 9 15 16 17 17 17 15 9 8 7 8
10 11 12 11 10 9 8 6 8 9 11 11 9 9 11 13 12 12 12 12 12 12 11 11 11 11 11 10 10 11 10 11 10 9 7 7 6 6 7 7 6 6 6 6 6 6 5 5 5 5 8 14 14 16 17 17 18 16 17 10 7 7
9 10 11 12 9 9 6 6 7 10 12 12 10 10 10 11 12 12 12 12 12 12 12 12 11 10 10 11 9 9 9 10 10 9 9 7 6 6 6 6 6 6 6 7 7 7 7 5 5 5 7 8 10 11 16 19 18 16 16 14 10 13
11 10 10 11 10 9 7 5 8 9 11 11 9 9 10 11 11 11 11 12 12 12 11 12 10 10 10 10 9 9 8 9 9 9 9 8 7 7 7 8 7 6 6 6 7 6 6 6 5 6 6 7 7 8 10 11 12 15 14 9 7 9
9 11 11 11 11 9 7 7 8 9 10 8 6 8 10 11 10 11 12 13 12 10 11 10 13 12 9 9 9 9 9 8 8 8 9 8 9 8 8 9 8 7 7 7 7 7 6 6 5 6 8 9 8 9 9 9 10 10 9 9 9 10
10 10 10 12 11 8 6 8 9 9 10 7 6 8 11 11 11 11 12 11 10 10 10 10 10 10 10 10 8 8 8 9 9 9 10 9 6 7 8 8 7 7 7 7 7 7 6 7 7 7 12 13 16 13 11 10 9 9 8 10 16 12
8 11 11 11 11 9 6 7 8 9 9 7 7 9 10 11 11 11 10 9 9 10 10 10 10 9 9 9 10 10 9 10 12 11 10 10 13 15 16 11 7 9 8 8 6 6 7 7 8 15 18 18 19 20 20 18 17 14 12 14 17 9
9 9 10 10 10 9 7 6 7 7 8 7 7 9 10 10 10 9 9 9 8 10 11 10 10 10 9 9 9 9 10 10 9 10 14 14 14 14 14 11 15 17 17 11 7 8 14 15 16 17 17 17 18 20 20 19 14 14 14 14 8 4
9 10 10 10 9 9 7 7 7 6 7 6 7 9 9 10 9 9 9 9 9 11 10 10 10 11 10 9 9 9 10 10 11 12 8 10 13 13 12 11 13 16 17 17 14 11 8 13 16 17 16 16 18 18 19 17 13 15 15 12 8 5
9 9 9 9 9 9 8 8 7 6 6 6 7 8 9 9 9 10 10 9 10 10 11 10 10 10 10 10 11 10 9 9 10 11 13 10 8 10 10 10 12 15 17 17 16 17 16 16 16 18 17 17 17 18 18 15 12 14 17 13 10 6
9 8 9 9 9 9 9 8 7 6 6 6 8 8 9 9 9 9 9 9 11 11 10 10 9 10 10 10 9 9 10 10 9 10 10 12 12 9 5 6 11 14 17 16 16 17 19 19 19 18 17 18 18 18 18 12 7 9 16 13 7 6
10 8 9 11 10 9 9 8 7 5 5 7 8 8 9 9 9 8 10 15 12 8 9 9 9 9 10 10 9 9 10 10 10 10 10 10 10 11 12 10 7 9 13 13 13 16 20 20 21 19 17 18 17 18 16 11 10 10 10 10 8 7
9 8 8 9 9 9 9 8 6 5 6 7 7 8 9 8 8 8 8 8 10 9 8 9 9 9 9 9 9 9 10 10 10 10 10 10 9 9 10 10 9 8 9 13 13 16 18 19 20 18 17 17 18 18 16 9 8 7 7 7 7 7
Wind_Direction
355 352 349 345 346 345 345 344 344 344 349 347 345 339 333 328 328 331 332 344 336 328 327 321 317 301 291 290 288 296 295 294 296 290 286 306 306 296 285 284 275 266 265 250 254 256 253 252 251 247 248 238 244 241 243 242 237 241 244 240 236 242
355 355 352 350 349 349 349 352 355 358 356 355 353 348 347 345 346 345 342 341 340 332 329 327 318 309 303 293 294 300 299 297 309 309 316 304 310 300 304 297 289 285 280 266 254 259 257 254 253 247 247 244 242 244 244 245 236 242 245 247 240 243
2 4 3 360 359 0 360 1 1 0 2 4 2 0 354 352 350 348 343 337 336 335 330 324 327 326 327 322 301 284 281 291 293 292 278 304 293 292 288 283 282 289 284 284 278 268 267 260 258 249 245 244 248 243 244 247 238 243 245 245 248 242
8 6 3 3 3 2 2 1 2 2 0 357 358 359 1 353 352 349 343 341 337 335 328 324 323 324 328 332 322 308 307 294 290 285 297 285 283 291 283 282 280 282 286 283 284 282 277 276 272 264 247 248 247 251 240 243 240 243 247 240 249 244
8 5 4 4 2 359 359 0 1 357 353 354 354 354 353 352 346 346 344 344 345 342 341 338 341 339 340 339 334 336 336 333 324 323 313 302 294 280 258 272 283 286 287 285 279 283 281 277 280 282 277 268 264 267 265 251 247 249 253 250 249 249
4 6 6 3 1 357 359 357 355 354 354 353 349 350 347 347 348 345 344 344 347 348 352 357 352 349 349 347 339 335 338 340 344 341 340 332 328 332 326 320 307 303 291 282 282 275 278 281 279 284 274 266 264 265 268 269 262 258 259 261 262 262
8 5 1 358 357 355 353 354 354 354 350 349 347 345 343 342 344 344 345 346 347 352 355 353 353 351 348 345 340 335 331 336 341 357 360 353 351 346 340 340 344 329 323 308 293 290 284 276 280 285 285 278 273 272 274 273 271 267 265 263 264 266
2 4 360 356 355 350 348 347 350 349 347 346 345 343 342 342 344 342 341 348 349 349 352 350 349 346 342 340 338 335 332 329 337 342 350 7 351 344 346 339 341 336 324 319 307 299 291 290 288 285 285 286 285 280 274 275 273 272 271 270 267 264
2 356 356 355 351 350 346 345 342 343 343 343 344 344 340 339 341 338 341 346 347 345 347 345 343 339 336 336 332 331 332 334 330 332 337 337 334 343 338 340 335 328 322 309 309 304 301 302 304 293 287 287 289 286 285 282 279 275 273 271 269 266
352 354 352 350 349 345 344 343 342 340 340 337 338 340 339 338 339 337 340 344 342 345 341 340 335 336 336 331 332 335 335 334 333 332 325 322 331 340 336 331 325 310 304 294 291 289 294 294 298 290 280 278 275 280 279 277 279 279 277 274 271 269
348 345 346 344 344 345 343 340 339 340 338 336 336 335 338 336 336 336 338 339 341 340 336 331 332 332 333 333 334 337 338 336 332 329 327 324 326 328 325 320 320 316 313 296 280 286 283 283 279 268 268 270 274 264 273 277 277 278 281 279 275 270
345 343 341 343 343 341 340 339 338 337 334 332 333 334 333 337 335 337 337 337 335 334 332 330 329 330 331 333 335 334 333 333 332 331 329 329 327 326 331 333 325 316 315 318 315 306 304 297 277 273 276 277 273 272 266 266 262 262 265 272 278 276
339 339 340 339 340 335 333 329 331 330 329 329 331 331 330 332 331 333 335 332 332 331 330 330 331 331 333 332 330 329 330 331 331 330 328 329 330 330 332 330 327 329 322 314 312 314 321 328 308 298 296 290 280 275 273 268 271 260 258 262 265 273
337 337 334 333 332 331 329 327 323 324 324 326 328 326 324 323 323 325 325 327 327 330 330 328 328 330 329 330 330 329 328 327 331 332 331 331 333 332 329 329 327 326 326 320 314 308 313 319 296 299 301 297 291 284 277 273 271 271 265 260 262 266
329 326 325 325 328 327 324 323 321 317 316 318 317 320 319 318 321 320 320 321 324 325 328 329 329 327 326 326 324 322 323 326 328 332 333 330 327 325 328 326 327 324 322 317 313 311 316 318 306 306 304 301 297 293 288 278 270 271 272 268 265 268
322 320 318 315 314 315 313 315 312 308 311 311 310 310 310 313 318 320 318 319 324 323 323 323 322 319 321 321 320 318 318 321 325 324 322 319 325 326 323 324 323 322 321 317 311 308 317 321 315 317 318 315 309 306 302 285 284 276 271 271 270 270
314 315 318 321 322 322 323 320 319 316 317 320 316 314 311 310 311 316 316 319 321 321 320 318 316 314 314 318 318 316 314 314 316 319 320 319 320 321 321 321 321 318 316 315 312 312 318 322 318 320 321 319 315 313 312 294 288 283 277 273 269 270
303 305 305 310 318 316 319 316 321 323 317 315 312 310 311 311 312 312 315 318 322 319 318 315 311 308 308 306 311 313 311 309 314 316 317 312 309 304 304 306 307 311 312 312 309 308 314 318 320 322 324 322 321 323 316 307 297 293 289 284 281 275
287 290 295 305 309 314 315 316 323 321 317 316 314 312 310 312 314 316 319 320 318 314 313 313 310 308 306 304 303 305 306 308 315 316 313 306 309 311 317 313 316 313 312 313 313 314 316 316 320 327 331 335 334 333 324 317 306 297 297 295 294 285
281 279 285 296 300 305 309 315 320 317 312 313 315 315 313 314 313 317 322 318 314 310 307 305 304 303 302 302 300 300 304 305 310 312 314 314 316 315 318 321 319 315 311 312 317 319 320 322 324 337 342 342 342 344 336 325 316 305 300 300 295 292
300 294 295 294 300 305 311 312 311 310 307 309 312 313 312 315 317 329 325 316 311 306 302 300 297 293 292 292 295 305 307 306 308 310 312 309 307 309 316 322 317 314 307 302 303 305 315 323 331 341 346 344 345 345 327 331 324 315 313 312 312 311
317 313 310 311 307 310 316 307 302 300 303 307 309 310 310 313 328 326 317 310 306 303 301 298 295 293 296 302 305 303 301 300 301 304 300 304 302 303 307 306 304 307 308 307 303 303 307 318 330 338 349 348 347 347 341 317 327 326 319 317 315 318
313 309 310 311 313 316 314 310 303 299 301 306 307 305 307 320 326 316 306 305 305 302 298 296 296 301 305 304 300 301 304 302 292 290 295 293 290 285 289 286 284 289 295 301 297 297 308 312 326 326 345 349 348 345 345 320 315 307 308 312 312 312
306 307 309 313 322 321 317 313 306 303 305 302 297 299 315 328 315 308 307 306 304 303 302 301 301 302 302 304 306 310 306 303 300 292 286 282 283 284 284 287 289 288 286 280 273 284 299 313 316 320 335 346 344 341 338 335 318 320 316 315 310 310
305 305 307 314 325 324 322 318 310 305 308 306 301 307 325 320 314 312 308 305 303 303 304 304 305 306 306 306 308 307 306 303 302 300 292 286 287 288 291 289 291 291 288 284 278 284 295 310 311 315 320 337 341 336 333 330 327 325 323 312 313 313
297 301 305 311 322 325 319 319 308 311 312 310 307 329 322 318 317 312 309 304 303 305 306 305 306 307 309 308 310 307 303 303 302 302 300 295 294 296 296 297 290 298 302 308 313 309 315 322 321 319 331 339 338 336 332 330 327 326 316 308 297 296
310 310 309 311 321 317 311 312 311 310 310 308 321 324 321 323 316 310 305 305 305 306 305 304 304 305 308 313 316 314 311 309 311 307 303 300 299 296 297 299 296 295 300 308 315 319 320 317 321 325 330 334 333 333 331 329 326 323 320 308 287 285
316 312 308 310 316 311 308 321 322 315 309 317 321 320 330 323 315 310 306 304 305 306 307 307 306 307 309 312 312 312 313 312 312 309 305 305 300 302 300 302 297 302 309 314 318 323 323 324 319 322 325 325 329 328 328 327 324 317 310 300 290 293
323 319 318 313 318 317 319 334 330 316 316 320 327 338 328 317 310 308 310 310 307 306 309 310 310 313 314 315 312 312 312 312 310 308 309 308 313 316 322 317 311 311 316 322 323 323 326 329 330 331 325 331 328 327 325 324 321 318 311 303 307 310
328 321 322 320 318 318 336 347 334 327 326 329 343 335 329 318 314 314 312 311 305 305 309 310 312 314 312 313 314 314 312 308 305 306 306 310 313 318 324 316 315 329 332 326 326 326 331 330 334 336 335 337 334 327 325 319 317 314 310 316 317 313
330 324 323 320 317 325 343 341 335 330 330 338 341 336 330 321 318 313 309 309 311 311 313 311 310 313 313 312 310 302 299 304 307 305 301 299 295 310 317 317 337 337 332 327 331 332 328 333 334 331 339 335 333 331 325 323 317 309 316 318 315 308
332 325 322 317 319 321 331 334 333 330 331 336 340 337 328 323 321 318 312 312 313 312 313 315 315 314 313 314 314 313 307 300 299 298 299 302 309 316 318 336 356 350 342 333 332 338 333 327 325 335 340 339 336 333 329 325 322 331 333 327 319 322
330 321 317 317 318 314 319 325 327 328 329 335 339 335 325 323 319 314 312 314 314 314 316 314 315 314 313 314 316 313 311 313 313 307 302 300 307 316 318 343 359 356 351 343 334 337 336 333 337 341 342 343 342 339 336 333 337 350 350 349 341 17
326 324 319 317 313 309 315 321 324 326 326 334 337 330 323 321 319 314 311 313 311 316 316 317 315 315 315 316 317 315 316 316 317 316 310 306 311 314 321 346 354 353 352 347 346 344 333 336 338 342 347 350 350 347 344 342 347 5 8 6 28 44
318 313 311 312 309 312 319 320 319 325 325 333 333 328 323 321 319 311 309 310 313 315 316 315 316 317 318 317 319 319 318 320 321 320 320 321 314 312 320 339 349 352 349 348 347 347 345 343 344 344 348 353 356 355 351 348 352 12 15 23 36 33
312 310 310 308 311 317 318 314 316 322 325 333 329 327 321 317 313 309 308 311 316 316 315 316 314 315 315 315 315 316 319 318 318 314 313 317 322 323 316 335 353 353 348 346 348 347 348 348 349 351 354 356 359 1 359 4 358 16 24 32 27 17
312 309 311 315 318 318 314 310 312 317 327 330 327 323 319 315 315 313 310 313 316 313 311 310 311 312 314 316 315 316 320 318 316 315 316 319 320 321 324 329 346 355 352 344 344 346 349 350 349 354 358 3 5 9 5 21 24 16 1 11 11 7
308 306 313 318 317 315 311 305 308 323 328 324 321 321 317 314 314 312 311 314 317 316 312 310 308 310 311 311 315 319 319 318 317 319 319 319 317 317 318 319 331 337 341 345 344 347 348 350 351 354 359 6 10 15 19 30 18 12 6 2 355 351